Weather History for LKCV - February, 2014

Change the Weather History Date:

Friday, February 7, 2014

  Actual Average Record
Temperature  
Mean Temperature 37 °F -  
Max Temperature 41 °F - - ()
Min Temperature 34 °F - - ()
Degree Days  
Heating Degree Days 28    
Moisture  
Dew Point 34 °F    
Average Humidity 87    
Maximum Humidity 93    
Minimum Humidity 81    
Precipitation  
Precipitation 0.00 in - - ()
Sea Level Pressure  
Sea Level Pressure 29.68 in    
Wind  
Wind Speed 11 mph ()    
Max Wind Speed 22 mph    
Max Gust Speed -    
Visibility 6.9 miles    
Events      
T = Trace of Precipitation, MM = Missing Value Source: Averaged Metar Reports

Daily Weather History Graph

Daily Weather History Graph

Search for Another Location

Airport or City:

Trip Planner

Search our weather history database for the weather conditions in past years. The results will help you decide how hot, cold, wet, or windy it might be!

Date:

Astronomy

Feb. 07, 2014 Rise Set
Actual Time 7:22 AM CET 5:02 PM CET
Civil Twilight 6:48 AM CET 5:37 PM CET
Nautical Twilight 6:10 AM CET 6:15 PM CET
Astronomical Twilight 5:33 AM CET 6:52 PM CET
Moon 10:57 AM CET (2/7) 1:25 AM CET (2/7)
Length of Visible Light 10h 48m
Length of Day
9h 39m
First Quarter, 56% of the Moon is Illuminated
Feb 7
First Quarter
Feb 15
Full
Feb 22
Last Quarter
Mar 1
New
Mar 8
First Quarter

Hourly Weather History & Observations

Time (CET) Temp. Windchill Dew Point Humidity Pressure Visibility Wind Dir Wind Speed Gust Speed Precip Events Conditions
12:00 AM 36 °F - 33 °F 87% 29.81 in 6 mi SE 6.7 mph - -  
12:00 AM 35.6 °F 29.2 °F 33.8 °F 93% 29.77 in - SE 8.1 mph - N/A   Clear
1:00 AM 37 °F - 34 °F 84% 29.78 in 6 mi SE 11.2 mph - -   Mostly Cloudy
1:00 AM 37.4 °F 29.3 °F 33.8 °F 87% 29.74 in - SE 12.7 mph - N/A   Clear
2:00 AM 37 °F - 34 °F 85% 29.76 in 6 mi SE 13.4 mph - -   Mostly Cloudy
2:00 AM 37.4 °F 29.3 °F 33.8 °F 87% 29.71 in - SE 12.7 mph - N/A   Clear
3:00 AM 36 °F - 34 °F 88% 29.73 in 6 mi SE 13.4 mph - -  
3:00 AM 35.6 °F 26.6 °F 33.8 °F 93% 29.68 in - SE 13.8 mph - N/A   Clear
4:00 AM 36 °F - 34 °F 88% 29.71 in 6 mi SSE 15.7 mph - -   Partly Cloudy
4:00 AM 35.6 °F 26.2 °F 33.8 °F 93% 29.68 in 6.2 mi SSE 15.0 mph - N/A   Scattered Clouds
5:00 AM 37 °F - 34 °F 85% 29.70 in 6 mi SSE 15.7 mph - -   Partly Cloudy
5:00 AM 37.4 °F 28.2 °F 33.8 °F 87% 29.65 in 6.2 mi SSE 16.1 mph - N/A   Scattered Clouds
6:00 AM 37 °F - 34 °F 86% 29.68 in 6 mi SSE 15.7 mph - -   Partly Cloudy
6:00 AM 37.4 °F 28.2 °F 33.8 °F 87% 29.65 in 6.2 mi SSE 16.1 mph - N/A   Mostly Cloudy
7:00 AM 37 °F - 34 °F 85% 29.68 in 6 mi SSE 17.9 mph - -   Scattered Clouds
7:00 AM 37.4 °F 27.2 °F 33.8 °F 87% 29.62 in 6.2 mi SSE 19.6 mph - N/A   Mostly Cloudy
7:49 AM 37.4 °F 27.8 °F 33.8 °F 87% 29.65 in 5.0 mi SE 17.3 mph - N/A   Overcast
8:00 AM 37 °F - 34 °F 84% 29.68 in 5 mi SSE 15.7 mph - -   Mist
8:00 AM 37.4 °F 27.8 °F 33.8 °F 87% 29.62 in 5.0 mi SSE 17.3 mph - N/A   Overcast
9:00 AM 37 °F - 34 °F 86% 29.66 in 6 mi SE 15.7 mph - -   Overcast
9:00 AM 37.4 °F 28.2 °F 33.8 °F 87% 29.62 in 6.2 mi SE 16.1 mph - N/A   Overcast
10:00 AM 37 °F - 34 °F 86% 29.68 in 6 mi SE 15.7 mph - -   Overcast
10:00 AM 37.4 °F 28.5 °F 33.8 °F 87% 29.62 in 6.2 mi SE 15.0 mph - N/A   Overcast
11:00 AM 37 °F - 34 °F 85% 29.67 in 6 mi SE 15.7 mph - -   Overcast
11:00 AM 37.4 °F 28.2 °F 33.8 °F 87% 29.62 in 6.2 mi SE 16.1 mph - N/A   Overcast
12:00 PM 38 °F - 34 °F 81% 29.69 in 9 mi SE 11.2 mph - -   Overcast
12:00 PM 37.4 °F 29.3 °F 33.8 °F 87% 29.65 in 6.2 mi SE 12.7 mph - N/A   Overcast
1:00 PM 38 °F - 34 °F 81% 29.68 in 9 mi SE 13.4 mph - -   Overcast
1:00 PM 37.4 °F 28.9 °F 33.8 °F 87% 29.62 in 6.2 mi SE 13.8 mph - N/A   Overcast
2:00 PM 38 °F - 35 °F 82% 29.68 in 9 mi SSE 13.4 mph - -   Overcast
2:00 PM 37.4 °F 28.9 °F 33.8 °F 87% 29.65 in 6.2 mi SSE 13.8 mph - N/A   Overcast
3:00 PM 38 °F - 35 °F 84% 29.66 in 9 mi SSE 17.9 mph - -   Overcast
3:00 PM 37.4 °F 26.6 °F 35.6 °F 93% 29.62 in 6.2 mi SE 21.9 mph - N/A   Overcast
4:00 PM 38 °F - 35 °F 85% 29.68 in 9 mi SE 13.4 mph - -   Overcast
4:00 PM 39.2 °F 31.6 °F 35.6 °F 87% 29.65 in 6.2 mi SE 12.7 mph - N/A   Overcast
5:00 PM 38 °F - 35 °F 85% 29.68 in 9 mi SE 8.9 mph - -   Partly Cloudy
5:00 PM 37.4 °F 30.8 °F 35.6 °F 93% 29.62 in 6.2 mi SE 9.2 mph - N/A   Mostly Cloudy
6:00 PM 38 °F - 35 °F 87% 29.68 in 9 mi SE 8.9 mph - -   Mostly Cloudy
6:00 PM 37.4 °F 31.4 °F 35.6 °F 93% 29.62 in - SE 8.1 mph - N/A   Clear
7:00 PM 38 °F - 36 °F 88% 29.69 in 9 mi SE 8.9 mph - -   Mostly Cloudy
7:00 PM 37.4 °F 30.3 °F 35.6 °F 93% 29.65 in - SE 10.4 mph - N/A   Clear
8:00 PM 38 °F - 36 °F 88% 29.70 in 9 mi SE 6.7 mph - -   Overcast
8:00 PM 37.4 °F 32.1 °F 35.6 °F 93% 29.65 in - SSE 6.9 mph - N/A   Clear
9:00 PM 39 °F - 35 °F 82% 29.70 in 9 mi South 4.5 mph - -   Mostly Cloudy
9:00 PM 39.2 °F 35.9 °F 35.6 °F 87% 29.65 in - South 4.6 mph - N/A   Clear
10:00 PM 38 °F - 35 °F 85% 29.73 in 9 mi South 4.5 mph - -   Scattered Clouds
10:00 PM 37.4 °F - 35.6 °F 93% 29.68 in - Variable 2.3 mph - N/A   Clear
11:00 PM 40 °F - 36 °F 82% 29.75 in 9 mi South 6.7 mph - -   Overcast
11:00 PM 41.0 °F 36.4 °F 35.6 °F 81% 29.71 in - South 6.9 mph - N/A   Clear